Flag Weather past 2 weeks in Delbrück, North Rhine-Westphalia, Germany

Now
41 °F

Sunny.


Feels Like: 35 °F
Forecast: 35 / 46 °F
Wind: 9 mph from Southeast

Location: Paderborn / Lippstadt

Current Time: Nov 27, 2014 at 3:44:03 PM

Latest Report: Nov 27, 2014 at 3:20 PM


Visibility: 10 mi

Pressure: 29.77 "Hg

Humidity: 76%

Dew point: 34 °F

Location of DelbrückLocation

Historic Weather in Delbrück — Graph

°F

Delbrück temperature yesterday

Maximum temperature yesterday: 41 °F (at 3:20 PM)
Minimum temperature yesterday: 34 °F (at 8:20 AM)
Average temperature yesterday: 38 °F

Past Weeks' High & Low Weather Summary

 TemperatureHumidityPressure
High57 °F (Nov 23, 12:50 PM)100% (Nov 12, 6:20 PM)30.33 "Hg (Nov 12, 6:20 PM)
Low30 °F (Nov 25, 2:50 AM)59% (Nov 23, 12:50 PM)29.50 "Hg (Nov 16, 5:50 AM)
Average44 °F89%29.96 "Hg
* Reported Nov 12 2:20 PM — Nov 27 2:50 PM, Delbrück, Weather by CustomWeather, © 2014

Note: Actual official high and low records may vary slightly from our data, if they occured in-between our weather recording intervals... More about our weather records

Advertising

Delbrück weather history for previous 24 hours

 ConditionsComfort  
Time TempWeatherWind HumidityBarometerVisibility
2:50 PM
Nov 27
41 °FSunny.10 mph76%29.77 "Hg10 mi
2:20 PM41 °FSunny.12 mph76%29.77 "Hg10 mi
1:50 PM41 °FSunny.12 mph76%29.80 "Hg10 mi
1:20 PM41 °FSunny.12 mph76%29.80 "Hg10 mi
12:50 PM41 °FSunny.9 mph76%29.80 "Hg10 mi
12:20 PM39 °FSunny.12 mph81%29.80 "Hg10 mi
11:50 AM39 °FSunny.14 mph81%29.80 "Hg10 mi
11:20 AM39 °FSunny.14 mph81%29.80 "Hg10 mi
10:50 AM39 °FSunny.15 mph81%29.83 "Hg10 mi
10:20 AM39 °FSunny.13 mph81%29.83 "Hg10 mi
9:20 AM37 °FSunny.15 mph87%29.83 "Hg10 mi
8:50 AM37 °FSunny.15 mph81%29.83 "Hg10 mi
8:20 AM37 °FSunny.14 mph81%29.83 "Hg10 mi
7:50 AM36 °FClear.12 mph87%29.83 "Hg10 mi
7:20 AM37 °FClear.10 mph81%29.83 "Hg10 mi
6:50 AM37 °FClear.13 mph81%29.83 "Hg10 mi
6:20 AM37 °FClear.12 mph81%29.83 "Hg10 mi
5:50 AM37 °FClear.13 mph81%29.83 "Hg10 mi
5:20 AM37 °FClear.12 mph81%29.83 "Hg10 mi
4:50 AM37 °FClear.13 mph81%29.83 "Hg10 mi
4:20 AM37 °FClear.13 mph81%29.86 "Hg10 mi
3:50 AM37 °FClear.14 mph81%29.86 "Hg10 mi
3:20 AM37 °FClear.13 mph81%29.86 "Hg10 mi
2:50 AM37 °FClear.12 mph81%29.86 "Hg10 mi
2:20 AM37 °FClear.10 mph81%29.89 "Hg10 mi
1:50 AM39 °FClear.9 mph75%29.89 "Hg10 mi
1:20 AM39 °FClear.9 mph75%29.89 "Hg10 mi
12:50 AM39 °FClear.12 mph75%29.92 "Hg10 mi
12:20 AM39 °FClear.10 mph75%29.92 "Hg10 mi
11:50 PM
Nov 26
39 °FClear.9 mph75%29.92 "Hg10 mi
11:20 PM39 °FPassing clouds.9 mph75%29.92 "HgN/A
10:50 PM39 °FPassing clouds.10 mph75%29.92 "HgN/A
10:20 PM39 °FClear.13 mph75%29.92 "Hg10 mi
9:50 PM39 °FClear.12 mph70%29.95 "Hg10 mi
9:20 PM39 °FClear.16 mph70%29.95 "Hg10 mi
8:50 PM39 °FClear.17 mph70%29.95 "Hg10 mi
8:20 PM39 °FClear.17 mph70%29.95 "Hg10 mi
7:50 PM39 °FClear.16 mph70%29.95 "Hg10 mi
7:20 PM37 °FClear.13 mph75%29.95 "Hg10 mi
6:50 PM37 °FPassing clouds.9 mph75%29.95 "HgN/A
6:20 PM37 °FPassing clouds.8 mph75%29.95 "HgN/A
5:50 PM37 °FPassing clouds.10 mph75%29.95 "HgN/A
5:20 PM37 °FClear.10 mph75%29.98 "Hg10 mi
4:50 PM39 °FClear.13 mph65%29.98 "Hg10 mi
4:20 PM39 °FSunny.10 mph70%29.98 "Hg10 mi
3:50 PM39 °FSunny.12 mph70%29.98 "Hg10 mi
3:20 PM41 °FSunny.10 mph66%29.98 "Hg10 mi
Weather by CustomWeather, © 2014

See weather overviewHow to use our weather pages